This is the latest recevied weather packets stored in our database for station/object W4NDF-13. If no packets are shown the sender has not sent any weather packets the latest 10 day(s).
| Time | Temp. | Humidity | Pressure | Rain* | Wind** | Luminosity | Snow |
|---|---|---|---|---|---|---|---|
| 1777820171 | 22.22° C | 40% | 1023.3 hPa | 0 mm | - | 483 W/m² | - |
| 1777819868 | 22.22° C | 38% | 1023.5 hPa | 0 mm | - | 419 W/m² | - |
| 1777819565 | 22.78° C | 41% | 1023.5 hPa | 0 mm | - | 528 W/m² | - |
| 1777819263 | 22.22° C | 42% | 1023.3 hPa | 0 mm | - | 516 W/m² | - |
| 1777818959 | 22.22° C | 42% | 1023.4 hPa | 0 mm | - | 500 W/m² | - |
| 1777818656 | 22.22° C | 43% | 1023.5 hPa | 0 mm | - | 486 W/m² | - |
| 1777818353 | 22.22° C | 42% | 1023.2 hPa | 0 mm | - | 471 W/m² | - |
| 1777818050 | 21.67° C | 44% | 1023.4 hPa | 0 mm | - | 453 W/m² | - |
| 1777817746 | 22.22° C | 48% | 1023.1 hPa | 0 mm | - | 439 W/m² | - |
| 1777817444 | 21.67° C | 48% | 1023.2 hPa | 0 mm | - | 426 W/m² | - |
| 1777817140 | 21.67° C | 45% | 1023.1 hPa | 0 mm | - | 410 W/m² | - |
| 1777816837 | 21.67° C | 50% | 1023.1 hPa | 0 mm | - | 394 W/m² | - |
| 1777816535 | 21.67° C | 52% | 1022.8 hPa | 0 mm | - | 377 W/m² | - |
| 1777816232 | 20.56° C | 55% | 1023 hPa | 0 mm | - | 360 W/m² | - |
| 1777815929 | 21.11° C | 56% | 1022.7 hPa | 0 mm | - | 344 W/m² | - |
| 1777815627 | 21.11° C | 56% | 1022.9 hPa | 0 mm | - | 328 W/m² | - |
| 1777815324 | 21.11° C | 61% | 1022.6 hPa | 0 mm | - | 311 W/m² | - |
| 1777815020 | 20.56° C | 61% | 1022.6 hPa | 0 mm | - | 261 W/m² | - |
| 1777814717 | 20.56° C | 62% | 1022.8 hPa | 0 mm | - | 252 W/m² | - |
| 1777814413 | 20.56° C | 61% | 1022.6 hPa | 0 mm | - | 249 W/m² | - |
| 1777814111 | 21.11° C | 60% | 1022.7 hPa | 0 mm | - | 242 W/m² | - |
| 1777813807 | 21.67° C | 57% | 1022.5 hPa | 0 mm | - | 228 W/m² | - |
| 1777813505 | 20.56° C | 60% | 1022.7 hPa | 0 mm | - | 198 W/m² | - |
| 1777813203 | 20° C | 62% | 1022.4 hPa | 0 mm | - | 163 W/m² | - |
| 1777812900 | 20° C | 63% | 1022.5 hPa | 0 mm | - | 182 W/m² | - |
* Rain latest hour (hover to see other rain measurements)
** Current wind speed in m/s (hover to see current wind gust speed)